sat.trackr.live / text

‹ back to catalog

RISAT-2BR2

NORAD 46905 · 2020-081A

PAYLOAD ACTIVE UNKNOWN

§ Identity

Operator
Country
IND
Launch date
2020-11-07
Launch site
SRILR
Launch vehicle
Mass (kg)
RCS (m²)

External: N2YO · Heavens-Above · Gunter

§ Orbital elements

Epoch: 2026-09-13T03:23:06.477216Z

Period
95.94 min
Inclination
36.8988°
Eccentricity
0.0013622
Mean motion
15.00886596 rev/d
Perigee alt
554.7 km
Apogee alt
573.6 km
Semi-major
6,942.3 km
B*
1.9171e-5
RAAN
62.2358°
Arg perigee
149.2350°
Mean anomaly
210.9191°
Rev number
32,069

§ Raw data

RISAT-2BR21 46905U 20081A   26256.14104719  .00000169  00000+0  19171-4 0  99912 46905  36.8988  62.2358 0013622 149.2350 210.9191 15.00886596320693

JSON: /api/v1/satellites/46905 · /tle

For live sub-satellite position, see the globe view (requires WebGL).

§ Visibility from observer

Set your observer location to see the next 7 days of passes ≥ 10°. The values pass through the URL so the page stays shareable.

No JS? Fill the form by hand. The geolocation button needs JavaScript.

§ Radio — SatNOGS DB

ModeDescriptionDownlinkUplink
FM S-band telemetry 2.250 GHz

1 transmitter · refreshed weekly from db.satnogs.org